Tucumcari, NM

9:41 PM MDT on July 21, 2017 (GMT -0600)
Tucumcari Municipal

Weather History for KTCC - March, 2013

Change the Weather History Date:

Wednesday, March 27, 2013

  Actual Average Record
Temperature  
Mean Temperature 62 °F -  
Max Temperature 80 °F 68 °F 87 °F (1971)
Min Temperature 44 °F 38 °F 11 °F (1931)
Degree Days  
Heating Degree Days 3    
Growing Degree Days 12 (Base 50)    
Moisture  
Dew Point 14 °F    
Average Humidity 18    
Maximum Humidity 32    
Minimum Humidity 6    
Precipitation  
Precipitation 0.00 in - - ()
Sea Level Pressure  
Sea Level Pressure 29.88 in    
Wind  
Wind Speed 16 mph (SW)    
Max Wind Speed 23 mph    
Max Gust Speed 32 mph    
Visibility 10 miles    
Events      
Averages and records for this station are not official NWS values.
T = Trace of Precipitation, MM = Missing Value Source: NWS Daily Summary

Daily Weather History Graph

Daily Weather History Graph

Search for Another Location

Airport or City:

Trip Planner

Search our weather history database for the weather conditions in past years. The results will help you decide how hot, cold, wet, or windy it might be!

Date:

Astronomy

Mar. 27, 2013 Rise Set
Actual Time 6:47 AM MDT 7:12 PM MDT
Civil Twilight 6:22 AM MDT 7:37 PM MDT
Nautical Twilight 5:52 AM MDT 8:07 PM MDT
Astronomical Twilight 5:22 AM MDT 8:37 PM MDT
Moon 7:55 PM MDT (3/27) 6:42 AM MDT (3/27)
Length of Visible Light 13h 15m
Length of Day
12h 24m
Full, 100% of the Moon is Illuminated
Mar 27
Full
Apr 2
Last Quarter
Apr 10
New
Apr 18
First Quarter
Apr 25
Full

Hourly Weather History & Observations

Time (MDT) Temp. Windchill Dew Point Humidity Pressure Visibility Wind Dir Wind Speed Gust Speed Precip Events Conditions
12:53 AM 51.1 °F - 12.0 °F 21% 29.91 in 10.0 mi SSW 17.3 mph - N/A   Clear
1:53 AM 50.0 °F - 12.9 °F 23% 29.88 in 10.0 mi SSW 18.4 mph - N/A   Clear
2:53 AM 48.9 °F - 14.0 °F 25% 29.88 in 10.0 mi SSW 23.0 mph 32.2 mph N/A   Clear
3:53 AM 48.0 °F - 15.1 °F 27% 29.86 in 10.0 mi SW 20.7 mph 31.1 mph N/A   Clear
4:53 AM 46.0 °F 39.3 °F 15.1 °F 29% 29.87 in 10.0 mi SW 16.1 mph - N/A   Clear
5:53 AM 45.0 °F 37.6 °F 16.0 °F 31% 29.88 in 10.0 mi WSW 17.3 mph - N/A   Clear
6:53 AM 44.1 °F 37.4 °F 16.0 °F 32% 29.91 in 10.0 mi WSW 13.8 mph - N/A   Clear
7:53 AM 46.9 °F - 16.0 °F 29% 29.94 in 10.0 mi West 8.1 mph - N/A   Clear
8:53 AM 54.0 °F - 15.1 °F 22% 29.94 in 10.0 mi SW 5.8 mph - N/A   Clear
9:53 AM 64.9 °F - 14.0 °F 14% 29.91 in 10.0 mi West 17.3 mph - N/A   Clear
10:53 AM 71.1 °F - 12.0 °F 10% 29.90 in 10.0 mi West 18.4 mph - N/A   Clear
11:53 AM 73.9 °F - 12.9 °F 10% 29.89 in 10.0 mi West 12.7 mph 20.7 mph N/A   Clear
12:53 PM 75.0 °F - 10.9 °F 9% 29.87 in 10.0 mi WNW 6.9 mph 18.4 mph N/A   Clear
1:53 PM 79.0 °F - 8.1 °F 7% 29.84 in 10.0 mi West 18.4 mph 24.2 mph N/A   Clear
2:53 PM 80.1 °F - 7.0 °F 6% 29.81 in 10.0 mi West 23.0 mph 28.8 mph N/A   Clear
3:53 PM 79.0 °F - 10.0 °F 7% 29.80 in 10.0 mi SW 17.3 mph 25.3 mph N/A   Clear
4:44 PM 78.8 °F - 8.6 °F 7% 29.92 in 10.0 mi SSW 16.1 mph 21.9 mph N/A   Clear
4:53 PM 78.1 °F - 10.0 °F 7% 29.80 in 10.0 mi South 16.1 mph 21.9 mph N/A   Clear
5:53 PM 77.0 °F - 7.0 °F 7% 29.82 in 10.0 mi SSW 10.4 mph - N/A   Clear
6:53 PM 72.0 °F - 10.9 °F 10% 29.84 in 10.0 mi SW 6.9 mph - N/A   Clear
7:53 PM 68.0 °F - 10.9 °F 11% 29.86 in 10.0 mi WSW 3.5 mph - N/A   Clear
8:22 PM 64.4 °F - 19.4 °F 18% 29.98 in 10.0 mi ENE 18.4 mph 26.5 mph N/A   Clear
8:53 PM 62.1 °F - 21.0 °F 21% 29.90 in 10.0 mi NE 17.3 mph - N/A   Clear
9:53 PM 57.9 °F - 21.9 °F 25% 29.91 in 10.0 mi East 15.0 mph - N/A   Clear
10:53 PM 53.1 °F - 21.0 °F 29% 29.93 in 10.0 mi ENE 10.4 mph - N/A   Clear
11:53 PM 50.0 °F - 21.0 °F 32% 29.94 in 10.0 mi NNE 10.4 mph - N/A   Clear